STARLINK-11277 [DTC] (61205 NORAD) Tracking and Keplerian Element Data

This shows tracking and keplerian element data for the satellite.

Feedback or suggestion? Click here.




ElementValue
Catalog61205
NameSTARLINK-11277 [DTC]
Epoch Orbit382
Epoch Day286.75170375
Epoch Year2024
RAAN185.7777
Inclination53.1573
Eccentricity0.000144
Argument of Perigee60.645
Mean Anonmoly299.4714
Mean Motion15.76758401
Decay Rate0.00018597
L11 61205U 24171F 24286.75170375 .00018597 00000+0 11722-3 0 9991
L22 61205 53.1573 185.7777 0001440 60.6450 299.4714 15.76758401 3825



Live tracking and technical data element details for STARLINK-11277 [DTC] (NORAD 61205). STARLINK-11277 [DTC] can be tracked NOW for your location showing map with azimuth and elevation plus other details from your city location.







IsCatalogInMostPopularTable: catalog: 61205, numindb: 21
Update: records affected: 1



GetName: 61205 STARLINK-11277 [DTC]

Hit Count: updated at: Wed, 04 Dec 2024 12:57:35 GMT